sat.trackr.live / text

‹ back to catalog

STARLINK-4503

NORAD 53528 · 2022-101B

PAYLOAD ACTIVE UNKNOWN

§ Identity

Operator
Country
US
Launch date
2022-08-19
Launch site
AFETR
Launch vehicle
Mass (kg)
RCS (m²)

Purposes: comms

External: N2YO · Heavens-Above · Gunter

§ Orbital elements

Epoch: 2026-09-20T01:28:49.909728Z

Period
95.44 min
Inclination
53.1602°
Eccentricity
0.0001131
Mean motion
15.08840336 rev/d
Perigee alt
539.0 km
Apogee alt
540.5 km
Semi-major
6,917.9 km
B*
3.0828e-5
RAAN
280.8909°
Arg perigee
88.5925°
Mean anomaly
271.5196°
Rev number
22,550

§ Raw data

STARLINK-45031 53528U 22101B   26263.06168877  .00000203  00000+0  30828-4 0  99902 53528  53.1602 280.8909 0001131  88.5925 271.5196 15.08840336225504

JSON: /api/v1/satellites/53528 · /tle

For live sub-satellite position, see the globe view (requires WebGL).

§ Visibility from observer

Set your observer location to see the next 7 days of passes ≥ 10°. The values pass through the URL so the page stays shareable.

No JS? Fill the form by hand. The geolocation button needs JavaScript.